Weather History for Fargo, ND

Change the Weather History Date:

Wednesday, January 16, 2013

  Actual Average Record
Temperature  
Mean Temperature 17 °F 9 °F  
Max Temperature 37 °F 18 °F 47 °F (1942)
Min Temperature -4 °F 0 °F -35 °F (1977)
Degree Days  
Heating Degree Days 48 56  
Month to date heating degree days 799 892  
Since 1 July heating degree days 4259 4432  
Cooling Degree Days 0 0  
Month to date cooling degree days 0 0  
Year to date cooling degree days 0 0  
Moisture  
Dew Point 8 °F    
Average Humidity 69    
Maximum Humidity 85    
Minimum Humidity 53    
Precipitation  
Precipitation 0.03 in 0.03 in 0.52 in (1889)
Month to date precipitation 0.38 0.40  
Year to date precipitation 0.38 0.40  
Snow  
Snow 0.30 in 0.40 in 4.60 in (1994)
Month to date snowfall 2.7 6.3  
Since 1 July snowfall 16.2 26.1  
Snow Depth 3.00 in    
Sea Level Pressure  
Sea Level Pressure 29.92 in    
Wind  
Wind Speed 15 mph (NNW)    
Max Wind Speed 28 mph    
Max Gust Speed 35 mph    
Visibility 8 miles    
Events Rain , Snow    
T = Trace of Precipitation, MM = Missing Value Source: NWS Daily Summary

Daily Weather History Graph

Daily Weather History Graph

Search for Another Location

Airport:

Trip Planner

Search our weather history database for the weather conditions in past years. The results will help you decide how hot, cold, wet, or windy it might be!

Date:

Astronomy

Jan. 16, 2013 Rise Set
Actual Time 8:07 AM CST 5:07 PM CST
Civil Twilight 7:33 AM CST 5:41 PM CST
Nautical Twilight 6:55 AM CST 6:19 PM CST
Astronomical Twilight 6:19 AM CST 6:55 PM CST
Moon 10:20 AM CST (1/16) 11:26 PM CST (1/16)
Length of Visible Light 10h 07m
Length of Day
8h 59m
Waxing Crescent, 28% of the Moon is Illuminated
Jan 16
Waxing Crescent
Jan 18
First Quarter
Jan 26
Full
Feb 3
Last Quarter
Feb 10
New

Hourly Weather History & Observations

Time (CST) Temp. Windchill Dew Point Humidity Pressure Visibility Wind Dir Wind Speed Gust Speed Precip Events Conditions
12:27 AM 30.2 °F 20.2 °F 26.6 °F 86% 29.54 in 8.0 mi SW 12.7 mph - N/A   Overcast
12:43 AM 32.0 °F 20.8 °F 28.4 °F 87% 29.54 in 10.0 mi WSW 17.3 mph - N/A   Overcast
12:53 AM 32.0 °F 20.8 °F 28.0 °F 85% 29.57 in 10.0 mi WSW 17.3 mph - N/A   Overcast
1:00 AM 33.8 °F 22.5 °F 28.4 °F 81% 29.53 in 10.0 mi WSW 19.6 mph - N/A   Overcast
1:53 AM 35.1 °F 25.5 °F 30.9 °F 85% 29.59 in 10.0 mi West 15.0 mph - 0.00 in   Overcast
2:12 AM 35.6 °F 26.6 °F 30.2 °F 81% 29.55 in 10.0 mi West 13.8 mph - N/A Rain Light Rain
2:53 AM 36.0 °F 26.0 °F 30.9 °F 82% 29.64 in 10.0 mi NW 17.3 mph - 0.02 in Rain Light Rain
3:17 AM 33.8 °F 22.2 °F 28.4 °F 81% 29.61 in 9.0 mi North 20.7 mph 26.5 mph 0.00 in   Overcast
3:43 AM 30.2 °F 19.8 °F 26.6 °F 86% 29.64 in 10.0 mi North 13.8 mph - 0.00 in   Overcast
3:53 AM 30.0 °F 20.5 °F 26.1 °F 85% 29.68 in 10.0 mi North 11.5 mph - 0.00 in   Overcast
4:06 AM 30.2 °F 18.9 °F 24.8 °F 80% 29.64 in 10.0 mi North 16.1 mph - N/A   Overcast
4:53 AM 26.1 °F 11.6 °F 19.0 °F 75% 29.72 in 10.0 mi North 21.9 mph - N/A   Overcast
5:53 AM 19.9 °F 5.2 °F 14.0 °F 78% 29.76 in 10.0 mi North 17.3 mph 23.0 mph N/A   Overcast
6:53 AM 18.0 °F 6.1 °F 12.0 °F 78% 29.79 in 10.0 mi North 10.4 mph - N/A   Overcast
7:43 AM 17.6 °F 1.7 °F 10.4 °F 73% 29.78 in 10.0 mi NNW 18.4 mph - N/A   Overcast
7:53 AM 16.0 °F 1.7 °F 10.0 °F 77% 29.83 in 10.0 mi North 13.8 mph - N/A   Overcast
8:03 AM 15.8 °F -0.2 °F 10.4 °F 79% 29.79 in 10.0 mi North 17.3 mph - N/A   Overcast
8:24 AM 15.8 °F -0.2 °F 10.4 °F 79% 29.79 in 10.0 mi North 17.3 mph - N/A   Overcast
8:42 AM 15.8 °F -0.2 °F 10.4 °F 79% 29.81 in 2.0 mi North 17.3 mph - 0.00 in Snow Light Snow
8:45 AM 15.8 °F 0.3 °F 10.4 °F 79% 29.81 in 1.8 mi North 16.1 mph - 0.00 in Snow Light Snow
8:53 AM 16.0 °F 1.1 °F 10.0 °F 77% 29.86 in 1.2 mi North 15.0 mph - 0.00 in Snow Light Snow
9:21 AM 15.8 °F -0.2 °F 8.6 °F 73% 29.84 in 2.0 mi North 17.3 mph - 0.01 in Snow Light Snow
9:40 AM 15.8 °F -0.6 °F 8.6 °F 73% 29.85 in 1.2 mi North 18.4 mph - 0.01 in Snow Light Snow
9:53 AM 14.0 °F -4.7 °F 8.1 °F 77% 29.93 in 1.2 mi North 23.0 mph - 0.01 in Snow Light Snow
10:20 AM 14.0 °F -1.4 °F 8.6 °F 79% 29.88 in 1.0 mi North 15.0 mph - 0.00 in Snow Light Snow
10:44 AM 14.0 °F -2.5 °F 6.8 °F 73% 29.90 in 2.0 mi North 17.3 mph - 0.00 in Snow Light Snow
10:53 AM 14.0 °F -2.5 °F 6.1 °F 71% 29.96 in 5.0 mi North 17.3 mph - 0.00 in   Overcast
11:53 AM 12.9 °F -5.3 °F 1.0 °F 59% 30.00 in 10.0 mi North 20.7 mph 25.3 mph 0.00 in   Overcast
12:53 PM 10.0 °F -10.0 °F -2.0 °F 58% 30.06 in 4.0 mi North 23.0 mph 34.5 mph N/A   Haze
1:53 PM 8.6 °F -12.3 °F -4.0 °F 57% 30.04 in 10.0 mi North 24.2 mph - N/A   Clear
2:53 PM 9.0 °F -7.9 °F -6.0 °F 51% 30.13 in 10.0 mi North 15.0 mph - N/A   Clear
3:53 PM 6.1 °F -13.3 °F -6.0 °F 58% 30.18 in 10.0 mi NNW 18.4 mph - N/A   Clear
4:53 PM 3.9 °F -16.1 °F -9.0 °F 55% 30.24 in 10.0 mi NNW 18.4 mph - N/A   Clear
5:53 PM 1.9 °F -16.9 °F -9.9 °F 58% 30.27 in 10.0 mi North 15.0 mph - N/A   Clear
6:53 PM -0.0 °F -17.1 °F -9.9 °F 63% 30.32 in 10.0 mi NNW 11.5 mph - N/A   Clear
7:53 PM -0.9 °F -15.3 °F -11.9 °F 60% 30.32 in 10.0 mi NNW 8.1 mph - N/A   Clear
8:53 PM -2.0 °F -17.7 °F -14.1 °F 57% 30.36 in 10.0 mi NNW 9.2 mph - N/A   Clear
9:53 PM -4.0 °F -19.0 °F -14.1 °F 62% 30.39 in 10.0 mi North 8.1 mph - N/A   Clear
10:53 PM -0.9 °F -12.7 °F -13.0 °F 57% 30.38 in 10.0 mi North 5.8 mph - N/A   Overcast
11:53 PM -0.9 °F -8.9 °F -13.0 °F 57% 30.37 in 10.0 mi ENE 3.5 mph - N/A   Overcast